Location: Unspecified
(49.8670°N, 0.0000°E)
Time: 23:19:38
(UTC+00:00)

ISS - Pass Details

Date: 27 May 2019
Orbit: 408 x 418 km, 51.6° (Epoch: 16 June)

Event Time Altitude Azimuth Distance (km) Brightness Sun altitude
Rises 22:55:34 0° 288° (WNW) 2,362 0.5 -17.5°
Reaches altitude 10° 22:57:44 10° 280° (W) 1,498 -0.7 -17.5°
Enters shadow 23:00:32 36° 227° (SW) 680 -3.0 -17.7°
